This demonstration page uses our WeatherBlox Daily Observations layout. Learn more.

Left ArrowRight Arrow

Hourly Observations for March 2, 2016

Temp ( °F °C ) Dew Point ( °F °C ) Humidity (%) Winds ( mph kmh ) Pressure ( in mb ) Visibility ( mi km ) Precip ( " mm )
12:23 am 00:23 Cloudy 30 -1.1 19 -7.2 64 64 WNW 18 30 30.09 1019 10 16 N/A
12:53 am 00:53 Cloudy 29 -1.7 19 -7.2 66 66 WNW 15 24 30.04 1017 10 16 N/A
1:53 am 01:53 Cloudy 29 -1.7 20 -6.7 69 69 WNW 10 17 30.07 1018 10 16 N/A
2:09 am 02:09 Cloudy 29 -1.7 19 -7.2 66 66 NW 16 26 30.12 1020 10 16 N/A
2:53 am 02:53 Cloudy 28 -2.2 18 -7.8 66 66 W 10 17 30.09 1019 9 14 N/A
3:53 am 03:53 Cloudy 28 -2.2 17 -8.3 63 63 WNW 14 22 30.09 1019 10 16 N/A
4:53 am 04:53 Cloudy 27 -2.8 18 -7.8 69 69 WNW 13 20 30.12 1020 10 16 N/A
5:53 am 05:53 Cloudy 26 -3.3 18 -7.8 71 71 WNW 12 19 30.16 1021 10 16 N/A
6:53 am 06:53 Cloudy 25 -3.9 17 -8.3 72 72 W 9 15 30.18 1022 10 16 N/A
7:53 am 07:53 Cloudy 25 -3.9 16 -8.9 69 69 WNW 8 13 30.20 1023 10 16 N/A
8:53 am 08:53 Partly Cloudy 27 -2.8 17 -8.3 66 66 W 9 15 30.22 1023 10 16 N/A
9:53 am 09:53 Partly Cloudy 27 -2.8 15 -9.4 61 61 W 8 13 30.23 1024 10 16 N/A
10:10 am 10:10 Mostly Cloudy 28 -2.2 15 -9.4 58 58 VRB 5 7 30.24 1024 10 16 N/A
10:25 am 10:25 Partly Cloudy 28 -2.2 16 -8.9 60 60 WSW 8 13 30.24 1024 10 16 N/A
10:53 am 10:53 Mostly Cloudy 31 -0.6 17 -8.3 56 56 W 9 15 30.23 1024 10 16 N/A
11:53 am 11:53 Partly Cloudy 32 undefined 15 -9.4 50 50 WNW 9 15 30.23 1024 10 16 N/A
12:53 pm 12:53 Sunny 34 1.1 15 -9.4 46 46 W 10 17 30.23 1024 10 16 N/A
1:53 pm 13:53 Sunny 35 1.7 13 -10.6 40 40 W 12 19 30.20 1023 10 16 N/A
2:53 pm 14:53 Sunny 37 2.8 16 -8.9 42 42 W 8 13 30.19 1023 10 16 N/A
3:53 pm 15:53 Sunny 37 2.8 14 -10 39 39 W 6 9 30.18 1022 10 16 N/A
4:53 pm 16:53 Sunny 37 2.8 16 -8.9 42 42 NW 10 17 30.19 1023 10 16 N/A
5:53 pm 17:53 Sunny 36 2.2 15 -9.4 42 42 W 5 7 30.19 1022 10 16 N/A
6:53 pm 18:53 Clear 33 0.6 17 -8.3 52 52 W 5 7 30.21 1023 10 16 N/A
7:53 pm 19:53 Clear 29 -1.7 21 -6.1 72 72 N N/A 30.21 1023 10 16 N/A
8:53 pm 20:53 Clear 30 -1.1 22 -5.6 72 72 N N/A 30.20 1023 10 16 N/A
9:53 pm 21:53 Clear 28 -2.2 24 -4.4 85 85 N N/A 30.20 1023 10 16 N/A
10:53 pm 22:53 Clear 27 -2.8 21 -6.1 78 78 N N/A 30.21 1023 10 16 N/A
11:53 pm 23:53 Clear 28 -2.2 19 -7.2 69 69 ESE 3 6 30.20 1023 10 16 N/A

Powered by AerisWeather